SCP
0 0 1 1 1 1 1 1 1 1 1 1 1 1 1 1 1 0 0 0 0 0 0 1 1 0 0 0 0 0 0 0 0 0 0 0 0 0 0 0 0 0 0
0 0 1 1 1 1 1 1 1 1 1 1 1 1 1 1 1 0 0 0 0 0 0 1 1 0 0 0 0 0 0 0 0 0 0 0 0 0 0 0 0 0 0
0 0 0 0 0 0 0 0 1 1 1 1 0 1 1 1 0 0 0 0 0 0 0 1 1 1 0 0 0 0 0 0 0 0 0 0 0 0 0 0 0 0 0
0 0 0 0 0 0 0 0 0 1 1 0 0 0 0 0 0 0 0 0 0 0 0 1 1 1 1 0 0 0 0 0 0 0 0 0 0 0 0 0 0 0 0
0 0 0 0 0 0 0 0 0 0 0 0 0 0 0 0 0 0 0 0 0 0 0 0 0 0 0 0 0 0 0 0 0 0 0 0 0 0 0 0 0 0 0
0 0 0 0 0 0 0 0 0 0 0 0 0 0 0 0 0 0 0 0 1 1 0 0 0 0 0 0 0 0 0 0 0 0 0 0 0 0 0 0 0 0 0
0 0 0 0 0 0 0 0 0 0 0 0 0 0 0 0 0 0 0 0 0 0 0 0 0 1 0 0 0 0 0 0 0 0 0 0 0 0 0 0 0 0 0
0 0 0 0 0 0 0 0 0 0 0 0 0 0 0 0 0 0 0 0 0 0 0 0 0 0 0 0 0 0 0 0 0 0 0 0 0 0 0 0 0 0 0
0 0 0 0 0 0 0 0 0 0 0 0 0 0 0 0 0 0 0 0 0 0 0 0 0 0 0 0 0 0 0 0 0 0 0 0 0 0 0 0 0 0 0
0 0 0 0 0 0 0 0 0 0 0 0 0 0 0 0 0 0 0 0 0 0 0 0 0 0 0 0 0 0 0 0 0 0 0 0 0 0 0 0 0 0 0
0 0 0 0 0 0 0 0 0 0 0 0 0 0 0 0 0 0 0 0 0 0 0 0 0 0 0 0 0 0 0 0 0 0 0 0 0 0 0 0 0 0 0
0 0 0 0 0 0 0 0 0 0 0 0 0 0 0 0 0 0 0 0 0 0 0 0 0 0 0 0 0 0 0 0 0 0 0 0 0 0 0 0 0 0 0
0 0 0 0 0 0 0 0 0 0 0 0 0 0 0 0 0 0 0 0 0 0 0 0 0 0 0 0 0 0 0 0 0 0 0 0 0 0 0 0 0 0 0
0 0 0 0 0 0 0 0 0 0 0 0 0 0 0 0 0 0 0 0 0 0 0 0 0 0 0 0 0 0 0 0 0 0 0 0 0 0 0 0 0 0 0
0 0 0 0 0 0 0 0 0 0 0 0 0 0 0 0 0 0 0 0 0 0 0 0 0 0 0 0 0 0 0 0 0 0 0 0 0 0 0 0 0 0 0
0 0 0 0 0 0 0 0 0 0 0 0 0 0 0 0 0 0 0 0 0 0 0 0 0 0 0 0 0 0 0 0 0 0 0 0 0 0 0 0 0 0 0
0 0 0 0 0 0 0 0 0 0 0 0 0 0 0 0 0 0 0 0 0 0 0 0 0 0 0 0 0 0 0 0 0 0 0 0 0 0 0 0 0 0 0
0 0 0 0 0 0 0 0 0 0 0 0 0 0 0 0 0 0 0 0 0 0 0 0 0 0 0 0 0 0 0 0 0 0 0 0 0 0 0 0 0 0 0
0 0 0 0 0 0 0 0 0 0 0 0 0 0 0 0 0 0 0 0 0 0 0 0 0 0 0 0 0 0 0 0 0 0 0 0 0 0 0 0 0 0 0
0 0 0 0 0 0 0 0 0 0 0 0 0 0 0 0 0 0 0 0 0 0 0 0 0 0 0 0 0 0 0 0 0 0 0 0 0 0 0 0 0 0 0
0 0 0 0 0 0 0 0 0 0 0 0 0 0 0 0 0 0 0 0 0 0 0 0 0 0 0 0 0 0 0 0 0 0 0 0 0 0 0 0 0 0 0
0 0 0 0 0 0 0 0 0 0 0 0 0 0 0 0 0 0 0 0 0 0 0 0 0 0 0 0 0 0 0 0 0 0 0 0 0 0 0 0 0 0 0
0 0 0 0 0 0 0 0 0 0 0 0 0 0 0 0 0 0 0 0 0 0 0 0 0 0 0 0 0 0 0 0 0 0 0 0 0 0 0 0 0 0 0
0 0 0 0 0 0 0 0 0 0 0 0 0 0 0 0 0 0 0 0 0 0 0 0 0 0 0 0 0 0 0 0 0 0 0 0 0 0 0 0 0 0 0
0 0 0 0 0 0 0 0 0 0 0 0 0 0 0 0 0 0 0 0 0 0 0 0 0 0 0 0 0 0 0 0 0 0 0 0 0 0 0 0 0 0 0
0 0 0 0 0 0 0 0 0 0 0 0 0 0 0 0 0 0 0 0 0 0 0 0 0 0 0 0 0 0 0 0 0 0 0 0 0 0 0 0 0 0 0
Wind_Speed
3 1 1 1 1 2 2 3 3 3 2 1 1 1 1 1 2 2 3 4 4 4 3 2 2 2 1 2 2 2 1 1 1 1 1 1 1 1 1 1 1 1 1
3 2 1 1 1 1 1 2 2 2 2 1 1 1 1 1 1 2 3 4 4 4 3 3 2 2 2 2 2 2 1 0 1 1 2 2 2 1 1 1 1 1 1
5 3 2 1 1 1 1 1 1 1 2 1 1 1 1 1 1 2 2 3 4 4 4 3 3 2 2 2 2 2 2 1 1 1 2 2 2 1 1 1 1 1 1
4 4 3 2 1 0 1 1 1 2 2 1 1 1 0 1 2 2 2 3 3 4 4 4 3 3 2 3 2 2 3 2 2 1 2 2 2 2 2 1 1 1 2
5 4 3 2 1 1 1 1 2 2 2 2 1 0 1 1 1 2 2 3 3 3 4 4 4 3 3 3 3 3 3 2 2 2 1 2 2 3 3 3 2 1 1
4 3 2 2 1 1 1 1 1 2 2 2 2 1 1 1 2 2 3 3 2 2 4 4 4 3 3 3 3 3 4 3 3 2 2 2 2 2 3 4 3 3 2
3 3 3 2 2 1 0 0 0 1 1 1 1 2 2 2 2 2 3 3 3 3 4 4 4 3 4 4 4 3 4 4 3 3 3 3 3 3 3 4 3 4 3
3 3 3 3 2 2 1 1 1 0 1 1 1 2 2 2 2 3 3 3 3 3 4 4 4 4 4 4 4 3 4 3 4 4 4 3 3 3 3 3 3 3 3
2 2 2 2 2 2 2 2 1 1 1 1 2 2 2 2 2 3 3 3 3 4 5 5 5 5 4 4 4 3 4 3 4 4 4 4 3 3 3 4 4 4 4
1 1 2 2 2 2 2 1 2 2 2 2 2 2 2 2 2 2 3 3 4 4 5 5 5 5 4 4 4 4 3 4 4 3 4 4 3 3 3 4 4 4 5
1 1 1 1 2 1 1 1 1 2 2 2 2 2 2 2 2 2 3 3 4 4 4 5 5 5 4 4 4 3 4 4 4 4 5 5 5 4 4 4 4 4 5
1 1 1 1 1 1 1 1 2 2 2 2 2 2 2 2 2 2 3 3 4 4 4 4 4 5 4 4 4 4 4 4 4 5 5 5 4 5 5 4 5 5 5
1 1 1 1 1 1 2 2 2 2 2 2 2 2 2 2 2 3 3 3 3 4 4 4 4 4 4 4 4 4 4 5 5 5 5 5 5 6 5 5 6 5 5
2 2 2 2 2 2 2 2 2 2 2 2 2 2 2 3 3 3 3 3 3 3 3 4 4 4 4 4 4 4 5 5 5 5 5 6 6 6 6 6 6 6 6
3 3 3 3 2 2 2 3 3 2 2 2 3 3 3 3 3 3 3 3 3 4 4 4 4 4 4 4 5 5 5 5 5 5 6 6 7 8 7 6 6 6 6
4 4 4 4 3 3 3 3 3 3 2 3 3 3 3 3 3 3 3 4 4 4 4 4 4 4 4 6 7 6 5 5 6 6 6 6 7 8 9 10 10 9 8
5 4 4 4 4 4 3 4 4 3 3 3 3 3 3 3 3 3 4 4 4 4 4 4 4 5 5 8 8 8 6 6 6 6 6 5 5 7 6 8 9 10 12
5 5 4 4 4 4 4 3 3 3 3 3 3 3 3 3 3 3 4 4 4 4 4 5 5 5 6 8 8 9 7 6 6 6 6 6 6 6 6 7 7 7 8
5 5 4 4 4 4 3 3 3 3 3 3 4 3 3 4 4 4 4 4 4 5 5 5 5 5 6 8 9 8 5 5 6 6 6 6 6 8 9 7 7 7 7
3 3 3 3 3 3 2 3 3 3 4 4 4 4 4 4 4 4 5 4 4 5 5 5 5 6 6 8 9 8 4 5 5 5 6 7 8 9 9 7 7 7 7
2 2 2 2 3 2 2 3 4 5 5 4 4 4 4 4 4 4 4 4 4 5 5 5 5 5 6 8 9 8 4 5 5 5 5 5 8 9 9 8 7 8 8
2 2 2 3 3 2 3 4 5 5 4 3 4 4 4 4 3 4 4 4 4 4 5 5 5 4 5 6 7 8 7 7 6 5 5 5 8 9 9 7 8 9 8
3 2 2 3 3 3 3 5 5 4 3 3 4 4 4 4 4 4 4 4 3 3 4 4 4 4 4 5 8 9 9 9 6 5 8 9 9 9 7 7 8 8 5
3 2 3 4 4 3 4 5 4 3 3 4 4 3 4 4 3 3 3 3 3 4 4 4 4 4 4 4 4 5 5 7 6 6 7 9 8 6 6 6 5 4 4
3 3 3 4 5 4 4 4 3 3 3 4 4 4 4 4 4 4 4 4 4 5 5 4 5 5 5 6 8 6 5 4 5 5 4 3 3 3 3 3 3 4 4
3 3 4 4 5 4 4 4 3 3 3 3 3 3 3 3 3 4 4 5 7 9 10 10 9 7 9 11 11 10 9 8 7 5 4 4 3 4 4 4 4 4 4
Wind_Direction
197 167 131 86 64 57 54 48 44 41 45 26 2 5 358 14 20 17 16 7 358 350 342 343 341 328 322 314 313 301 286 326 333 291 281 256 237 298 337 0 347 357 5
188 172 141 102 78 66 59 58 48 44 37 14 3 348 344 359 5 4 9 2 353 349 341 339 332 330 313 305 302 305 272 321 326 286 271 262 215 206 278 320 328 326 340
200 187 174 151 111 71 39 23 40 47 35 27 43 58 52 357 349 347 353 353 347 346 344 336 328 322 312 296 295 292 274 247 246 294 283 264 257 304 222 234 279 306 312
202 194 186 181 167 87 42 34 33 44 37 35 38 64 358 326 326 325 329 339 343 342 341 335 332 323 308 301 296 291 280 252 237 250 275 291 305 269 264 207 216 295 310
199 196 194 191 180 130 72 49 50 43 33 30 29 13 334 323 324 327 322 329 336 336 339 334 328 324 309 297 294 286 284 257 245 243 260 258 262 259 259 258 258 267 283
198 195 186 182 175 138 94 67 70 50 34 28 20 353 329 329 322 324 319 321 323 325 334 329 323 316 312 305 293 280 275 263 254 245 242 248 244 240 252 260 266 271 276
193 194 195 200 203 199 171 107 96 41 25 14 1 340 323 310 310 318 316 316 314 319 323 319 314 311 307 304 298 281 272 258 249 246 249 253 258 258 255 257 263 271 279
196 204 212 216 219 223 221 220 251 303 347 341 325 320 314 309 313 316 312 307 308 311 313 309 308 306 300 299 296 282 270 258 249 243 243 246 252 257 249 252 256 264 266
205 211 215 219 228 230 230 238 249 276 304 304 303 304 308 308 309 310 306 305 309 310 310 309 308 304 301 300 294 279 273 264 257 249 241 240 243 242 255 251 246 249 255
221 222 216 226 234 242 247 250 249 257 277 293 301 309 319 313 310 306 309 311 310 309 305 307 309 307 308 303 291 285 280 269 263 257 251 246 242 240 241 246 250 248 251
237 248 261 271 265 258 256 259 271 280 291 299 298 302 306 307 303 303 307 308 306 306 303 304 304 303 305 302 293 291 289 276 270 266 259 254 250 244 241 238 242 244 244
240 241 258 282 302 291 282 278 286 291 298 299 297 298 303 293 291 297 301 301 300 300 300 299 299 300 301 298 294 293 289 286 280 272 265 261 254 248 246 240 238 241 245
246 240 248 262 277 298 298 279 280 291 302 303 300 301 305 305 300 303 305 304 300 300 301 299 298 301 302 301 298 293 287 284 282 279 274 270 264 258 254 247 244 243 245
234 243 261 274 279 288 296 295 286 291 296 295 291 291 296 302 307 314 317 315 308 305 305 303 302 302 302 299 298 297 292 286 286 284 279 273 268 266 265 259 251 249 247
244 253 265 272 274 284 293 297 297 294 289 286 288 290 297 302 306 310 311 311 308 306 302 301 301 299 296 297 299 295 291 287 286 282 279 277 276 275 270 265 257 249 247
258 265 269 270 269 275 285 289 289 291 281 277 286 296 299 297 299 304 306 305 304 303 301 299 298 296 296 305 301 299 289 283 281 282 282 278 271 272 270 268 264 255 250
270 267 265 266 267 267 267 270 276 279 270 271 284 289 290 292 297 302 300 298 297 298 296 297 296 293 297 305 304 301 291 285 284 283 281 277 276 277 272 271 269 263 258
267 271 269 268 270 269 269 270 270 263 263 268 275 281 284 287 295 296 295 296 294 293 293 294 294 293 298 306 306 304 289 284 283 283 281 279 279 276 281 279 274 270 264
267 269 263 260 263 264 267 263 261 259 260 264 270 274 275 280 287 288 290 293 293 292 292 292 293 293 298 307 309 305 292 287 286 285 283 282 281 280 280 277 275 277 278
277 275 273 267 262 267 262 249 255 259 261 265 269 270 268 269 274 281 285 288 285 287 290 289 290 292 296 307 307 303 290 290 291 290 287 282 285 282 282 275 274 275 282
283 277 268 264 265 269 255 252 255 257 266 272 270 268 267 267 269 275 278 280 282 286 287 289 289 290 294 301 302 300 290 289 290 291 292 291 296 288 281 276 273 279 287
289 280 275 280 282 264 247 256 262 271 273 265 264 267 270 271 271 273 278 279 279 280 284 287 290 289 290 295 301 301 298 295 287 290 294 294 296 293 290 287 288 289 291
274 274 274 285 288 270 251 257 271 277 265 260 262 266 270 270 269 268 273 276 273 273 280 285 290 295 295 296 299 299 299 296 290 290 296 297 296 292 289 291 294 291 283
264 265 265 274 283 281 270 265 276 270 252 256 264 267 267 269 268 264 262 262 264 267 274 281 286 292 294 295 298 297 296 294 292 292 294 296 295 292 294 294 290 284 284
266 258 257 267 278 286 281 279 275 260 254 258 261 264 263 267 269 265 262 260 259 263 268 275 279 284 286 292 297 298 295 295 295 293 287 289 295 293 293 295 293 288 283
265 263 264 269 277 282 283 284 274 254 253 261 264 262 262 266 269 273 277 269 267 275 273 275 276 278 281 291 292 293 294 298 298 291 285 288 289 291 294 297 298 298 296